Погода в Ахене

Германия     50°46′44″N   6°04′58″E
темп.,
°C
ветер,
м/с
пор.,
м/с
влажн.,
%
обл.,
%
осадки,
мм/ч
давл.,
гПа
погр.,
м
16 мая, вс
вс1623:00+8юз613945 0.3 1003398
02:00+7юз613935 0.3 1003430
05:00+7юз613933 0.0 1003370
08:00+8юз611928 0.0 1003591
11:00+11юз698269 0.3 1003979
14:00+11юз697398 0.4 10031124
17:00+11юз588419 0.7 1002802
20:00+11юз478671 1.5 1001349
17 мая, пн
пн1723:00+7ююз3592100 0.1 100269
02:00+7ююз41093100 0.1 1002292
05:00+8юз61295100 0.1 1003585
08:00+8юз71293100 0.3 1004791
11:00+9юз81392100 1.3 10041350
14:00+10юз91494100 3.3 10051128
17:00+12зюз8128966 1.3 10061110
20:00+11зюз6108995 3.1 1008583
18 мая, вт
вт1823:00+8юз41196100 0.9 1009277
02:00+8юз6129627 1.1 1010481
05:00+7юз7139674 0.0 1010521
08:00+7юз71296100 0.2 1011808
11:00+10зюз71190100 0.4 10121067
14:00+11зюз71086100 1.5 10141019
17:00+12з688256 1.7 10141184
20:00+10з4787100 3.2 1016321
19 мая, ср
ср1923:00+8юз489588 0.8 1017261
02:00+6юз4109697 1.0 1018269
05:00+5юз5129585 0.0 1018285
08:00+7юз6119354 0.0 1019517
11:00+11зюз677227 0.0 10191159
14:00+12зюз687499 0.6 10181277
17:00+12з5780100 1.6 1018960
20:00+10з3590100 3.4 1019192
20 мая, чт
чт2023:00+6зюз228928 0.0 102111
02:00+5ююз35932 0.0 102268
05:00+4ююз47953 0.0 1022123
08:00+7юз59910 0.0 1022310
11:00+12зюз57713 0.0 10221145
14:00+14з67628 0.4 10221733
17:00+15з585798 0.7 10201843
20:00+11юз4986100 1.3 1020448